Vertical_Velocity
-1 -2 -3 -2 -3 -4 -1 -2 -3 -1 -2 0 2 -6 -2 -0 -2 -6 0 2 -7 -3 -2 -3 -2 -1 -0 -1 3 5 -6 -5 4 -11 4 1 -7 -1 -1 1 5 -0 -5 -5 1 -13 -10
-0 -1 -2 -2 -3 -3 -0 -3 1 -3 -2 1 0 -1 -3 -2 -2 -7 -5 1 1 -4 -2 -4 -2 -2 -1 0 -8 3 -4 -2 5 6 -4 -2 -2 1 14 -4 2 1 -2 -8 -9 -9 -2
0 1 -1 -4 -1 -3 -0 2 -1 -0 1 2 -0 -1 -4 -0 -3 -2 -6 -3 2 1 -1 -3 -2 -1 1 -3 -9 4 -1 -3 3 11 -4 3 4 3 1 5 12 6 -2 8 -2 -2 -8
-1 1 -0 -3 -2 -1 0 -1 -1 -2 0 -3 -3 -1 -1 -1 -3 -1 -5 -6 -2 4 4 -0 1 1 -1 -3 1 -13 9 2 6 -7 4 15 8 9 -1 6 5 -6 6 -0 1 7 1
-1 -1 -1 -1 -1 -2 -2 -2 2 -2 1 -3 3 0 -6 -1 -3 0 -2 -0 0 1 3 -1 0 -0 -4 3 -2 19 2 11 10 9 22 16 7 7 3 -3 5 0 -11 -1 -1 -8 -3
-2 1 -2 -0 -1 -2 -2 -0 -4 4 3 -0 1 -1 2 -2 -1 -2 -1 -2 3 4 1 0 1 -1 2 11 -15 17 5 1 1 30 28 13 12 2 1 -8 -16 4 7 5 -1 -10 5
-2 1 -1 -0 -2 -1 -2 -2 -2 1 -1 7 -1 1 0 -0 1 -2 -0 -5 -1 4 3 1 -0 -0 2 7 4 4 -5 1 6 11 -10 -3 -4 -11 12 -3 1 6 -1 0 4 2 5
-0 -1 -0 -1 -3 -1 -1 -0 2 3 8 -0 -3 -3 2 -2 1 -3 -2 -7 -2 8 6 2 -0 1 -6 1 -1 2 -1 -4 4 -1 2 -0 -3 1 9 -4 1 -5 -5 1 2 -2 3
-1 -0 -1 -1 -1 -1 -0 -3 0 3 5 -2 6 4 2 2 3 -0 0 0 -1 1 5 -3 -2 -1 -0 -1 -12 1 4 -8 -3 10 -2 5 -6 3 6 -1 -2 6 -1 -2 2 1 9
-0 -1 -1 -1 -3 -2 -1 1 0 1 2 -2 -4 -2 2 3 2 -0 -0 2 -0 0 4 -1 4 -3 2 -5 -24 -1 15 14 19 2 20 0 -1 -6 -2 4 0 4 1 5 3 3 -2
-1 -1 -1 0 -2 -3 1 -1 -1 2 1 -2 2 4 2 5 -3 -1 -5 1 -0 1 -5 6 -4 3 5 4 -16 -15 3 14 -10 -1 -4 2 -3 -3 2 0 -1 1 2 0 2 4 2
-1 -2 -1 -1 -2 1 -1 0 -0 -1 2 2 -1 3 1 4 2 0 -1 -5 1 -6 -11 5 -3 1 -0 5 5 4 10 7 17 6 4 -10 -0 5 -0 2 2 3 2 1 1 4 2
0 -3 -0 -2 -3 -1 -1 -0 2 -4 0 2 0 1 0 -0 2 -1 -1 -3 -1 -5 -2 -7 5 -4 3 -6 2 17 1 11 -2 -3 4 6 4 -3 1 -1 -1 4 1 -1 -3 1 -6
1 -3 -1 -3 -4 -0 2 -1 2 -3 1 4 -3 -1 3 -2 2 2 3 -3 -4 -0 0 0 -2 -2 1 -3 -1 -5 1 -2 -1 -8 -10 -4 6 6 0 0 -8 -0 -5 -6 -5 -2 -4
-0 -1 -1 -4 -3 -2 -0 -0 2 -3 -0 1 -2 -1 -2 2 -1 2 -0 -2 -3 -2 -7 3 1 -1 -1 -3 -4 2 -1 -0 -6 -0 -2 -4 -0 -1 -4 -5 1 -3 3 6 -2 -0 -0
-1 -0 -0 -4 -3 -2 -2 2 -1 -2 2 -1 -3 4 2 1 3 3 2 1 -2 -1 1 -3 3 4 -3 5 2 -5 1 1 -0 -1 -1 -4 -4 -1 1 3 4 -3 3 -0 0 -3 -1
-1 1 0 -2 -3 -1 -2 -1 0 -2 -1 -2 1 -2 -1 -1 3 0 -2 -0 3 -2 -1 -1 1 3 1 -11 -1 2 -1 -2 -0 -2 -2 -1 -2 0 3 -2 -7 -3 1 1 -0 3 -4
1 -0 1 -1 -3 -1 -3 -3 -1 -0 -4 0 -3 0 4 3 -1 -0 2 -1 -1 -3 1 0 -2 2 8 4 -0 -3 1 2 2 -1 -11 4 2 0 -2 -1 0 1 -1 2 2 -4 2
-1 1 -1 -3 -2 -1 -2 -4 -1 -1 0 -3 -0 5 0 -1 -1 -1 2 1 1 0 -3 4 0 1 2 4 1 0 -1 -2 3 2 2 -5 -1 -3 -2 -3 -6 -4 -4 -5 2 3 -3
-1 0 -1 -3 -3 -1 -2 -5 -2 -2 1 1 -1 -0 2 -1 -1 -5 -2 0 3 1 -1 -1 1 1 5 5 3 1 -0 0 -8 -8 -0 4 -0 -4 -10 -2 -2 -8 -5 3 6 5 -9
-2 1 -1 -2 -2 -1 -2 -3 0 -3 -2 -3 -2 0 2 -2 -0 -3 -4 -1 0 2 -1 -3 3 -0 -3 -0 0 3 6 4 7 4 5 4 0 1 3 4 5 4 4 4 -8 -1 -2
-2 0 0 -3 -1 -0 -3 -2 -2 0 -7 -1 -2 -1 -1 2 -1 -2 4 -2 -2 1 4 -3 -3 4 2 -0 1 -1 2 1 4 5 5 3 0 0 -1 0 -1 -4 -2 -0 1 4 -5
-1 -2 -1 -2 -0 -1 -2 -3 -2 -0 -3 -1 -2 -1 -2 -1 0 2 -0 -1 -0 0 3 0 -2 1 2 2 -1 1 3 0 -1 -1 -1 1 -2 -2 -1 -1 -1 -3 -6 1 0 3 9
-2 0 -1 -2 -2 -0 -2 -3 -2 -2 1 -1 -1 -1 -4 -1 -1 -1 0 2 0 6 3 6 1 -2 4 4 1 1 1 1 2 1 2 -0 1 1 -1 -3 -5 6 2 1 -2 1 -0
-4 0 -1 -2 -2 -3 -0 -3 -4 -3 -2 -1 -1 -0 -2 -4 -2 -1 -4 -1 -4 -6 1 1 3 2 1 2 2 -1 -2 -1 -1 1 -0 3 2 -3 -1 -1 -11 -3 -0 2 4 -7 2
-0 -3 -2 -1 -2 -4 -0 -2 -1 -4 -4 2 -3 -0 -1 1 4 0 -2 -4 -2 -4 -2 0 -0 3 -1 0 4 -1 -2 2 0 2 1 4 6 -0 -0 -1 -1 -1 0 0 -1 -4 3
0 -3 -2 -1 -1 -3 -3 -3 -1 -4 -3 -4 -3 -2 1 -5 2 -2 -1 -1 0 -1 1 -5 -1 0 -0 -2 1 1 -3 2 -1 -2 -1 1 4 -3 -2 -1 -7 -0 1 -0 -1 0 1
-5 -2 -2 0 -2 0 -2 -2 -2 -3 -4 -4 -2 2 -3 -4 -1 3 5 -0 1 1 3 0 0 5 3 0 -0 -4 1 1 1 -1 -3 -3 -1 -3 5 1 -11 -0 0 -1 -0 0 -1
-2 -3 1 -1 -2 -3 -2 -2 -3 0 -3 -5 -1 -1 1 -4 4 -2 0 -2 2 6 5 5 -1 4 3 1 -1 -1 1 1 1 -2 0 -6 -7 -2 -6 -4 1 1 -1 0 1 -1 -2
Height
3121 3116 3110 3105 3100 3095 3091 3086 3082 3077 3071 3065 3059 3052 3046 3035 3029 3025 3021 3019 3019 3019 3018 3016 3015 3014 3015 3017 3020 3020 3024 3029 3039 3048 3056 3063 3069 3076 3082 3087 3094 3098 3102 3110 3115 3121 3127
3119 3114 3109 3104 3099 3093 3088 3085 3080 3076 3070 3063 3057 3051 3045 3036 3029 3024 3022 3021 3020 3019 3018 3016 3015 3014 3013 3015 3014 3017 3019 3028 3036 3046 3054 3060 3067 3076 3082 3087 3093 3097 3102 3107 3110 3116 3122
3118 3112 3108 3103 3097 3093 3087 3083 3078 3074 3069 3062 3055 3049 3044 3037 3030 3026 3023 3022 3020 3018 3017 3015 3014 3013 3012 3012 3011 3010 3017 3025 3035 3043 3052 3059 3068 3075 3079 3085 3092 3096 3102 3105 3107 3113 3116
3117 3111 3106 3102 3096 3091 3086 3081 3077 3072 3067 3060 3054 3049 3044 3039 3032 3026 3023 3021 3019 3018 3016 3015 3013 3012 3011 3011 3010 3010 3015 3024 3033 3037 3050 3059 3067 3074 3080 3084 3090 3095 3100 3102 3106 3111 3115
3115 3110 3105 3100 3095 3090 3084 3080 3075 3070 3065 3060 3053 3048 3044 3041 3035 3028 3024 3020 3018 3017 3015 3013 3012 3012 3012 3010 3011 3010 3015 3023 3032 3040 3046 3057 3066 3072 3078 3082 3089 3093 3094 3097 3103 3106 3111
3114 3109 3103 3098 3094 3089 3083 3079 3074 3069 3065 3059 3054 3049 3043 3041 3037 3030 3026 3022 3018 3018 3016 3014 3013 3016 3014 3013 3011 3011 3017 3022 3032 3039 3045 3052 3064 3069 3074 3079 3075 3080 3085 3092 3098 3103 3107
3112 3108 3102 3097 3093 3087 3082 3078 3074 3068 3063 3058 3053 3049 3044 3041 3037 3034 3029 3025 3024 3021 3017 3015 3015 3014 3014 3014 3015 3016 3020 3027 3036 3041 3046 3053 3059 3061 3069 3075 3084 3086 3088 3094 3098 3102 3105
3110 3106 3101 3095 3091 3086 3082 3076 3071 3065 3063 3059 3052 3047 3044 3041 3038 3035 3032 3030 3025 3025 3021 3019 3018 3018 3018 3018 3019 3023 3027 3034 3038 3043 3049 3056 3058 3066 3074 3079 3086 3089 3092 3095 3099 3103 3106
3109 3104 3100 3094 3089 3084 3081 3075 3069 3065 3062 3058 3052 3047 3043 3041 3037 3035 3032 3032 3029 3025 3024 3023 3023 3022 3023 3024 3025 3027 3034 3035 3040 3046 3048 3053 3060 3068 3075 3081 3086 3088 3091 3095 3099 3102 3105
3107 3103 3098 3093 3088 3082 3079 3073 3068 3063 3060 3055 3051 3046 3042 3040 3039 3035 3033 3031 3031 3027 3026 3029 3026 3026 3026 3026 3029 3032 3032 3036 3037 3044 3053 3059 3064 3070 3075 3081 3085 3087 3092 3096 3098 3100 3102
3106 3101 3096 3092 3086 3081 3076 3071 3066 3061 3056 3053 3048 3045 3041 3038 3036 3034 3035 3031 3030 3029 3030 3032 3030 3030 3029 3032 3034 3034 3033 3035 3039 3042 3049 3056 3062 3070 3075 3080 3084 3089 3092 3095 3097 3100 3100
3104 3099 3095 3091 3085 3079 3074 3068 3064 3059 3055 3050 3049 3044 3041 3039 3037 3034 3033 3032 3032 3032 3033 3031 3031 3031 3032 3034 3034 3033 3033 3037 3040 3046 3052 3057 3064 3071 3075 3080 3085 3088 3092 3095 3097 3099 3100
3101 3097 3092 3089 3082 3077 3072 3066 3062 3057 3053 3048 3046 3043 3040 3037 3036 3033 3032 3032 3034 3031 3038 3034 3031 3032 3033 3035 3035 3034 3036 3036 3039 3048 3055 3061 3066 3071 3076 3080 3085 3088 3091 3095 3100 3099 3095
3097 3094 3090 3086 3080 3073 3069 3064 3060 3056 3051 3046 3045 3043 3039 3037 3034 3033 3032 3033 3033 3034 3035 3036 3033 3035 3036 3037 3038 3039 3040 3041 3045 3049 3054 3061 3071 3071 3072 3077 3081 3085 3089 3090 3095 3095 3091
3095 3091 3087 3082 3078 3072 3066 3062 3057 3053 3049 3043 3043 3041 3038 3036 3034 3032 3033 3029 3032 3033 3036 3038 3038 3036 3039 3039 3041 3042 3044 3047 3050 3053 3056 3060 3064 3067 3071 3077 3082 3083 3086 3089 3089 3090 3090
3091 3088 3084 3080 3075 3069 3063 3060 3056 3051 3047 3043 3040 3038 3037 3036 3034 3033 3033 3031 3032 3034 3035 3037 3039 3039 3037 3040 3043 3044 3045 3048 3050 3053 3055 3059 3062 3065 3069 3074 3077 3078 3083 3087 3087 3091 3088
3088 3084 3081 3077 3072 3066 3061 3057 3053 3049 3045 3042 3039 3037 3035 3035 3035 3034 3034 3033 3033 3035 3036 3037 3038 3039 3039 3040 3041 3042 3046 3047 3049 3051 3055 3058 3061 3067 3068 3069 3071 3076 3077 3081 3082 3080 3077
3084 3081 3078 3073 3068 3064 3059 3055 3051 3047 3043 3040 3038 3036 3034 3033 3034 3032 3033 3033 3034 3035 3036 3036 3037 3039 3041 3041 3043 3043 3043 3045 3046 3049 3053 3057 3059 3061 3064 3066 3070 3072 3073 3076 3077 3075 3073
3080 3078 3074 3070 3065 3061 3058 3054 3049 3046 3041 3038 3035 3035 3033 3034 3035 3033 3033 3033 3034 3035 3036 3036 3036 3038 3040 3042 3043 3044 3044 3045 3047 3048 3052 3055 3058 3060 3064 3066 3065 3065 3066 3069 3070 3069 3065
3077 3075 3071 3067 3063 3059 3056 3052 3047 3044 3039 3037 3035 3033 3032 3031 3030 3031 3033 3034 3034 3033 3034 3035 3036 3037 3038 3040 3042 3042 3044 3045 3046 3048 3050 3054 3056 3057 3058 3057 3058 3059 3059 3062 3064 3062 3059
3073 3071 3068 3064 3059 3057 3054 3050 3046 3042 3037 3035 3033 3032 3030 3030 3030 3030 3031 3032 3032 3033 3033 3035 3035 3035 3037 3038 3039 3041 3042 3044 3047 3048 3051 3053 3053 3054 3055 3055 3054 3054 3054 3054 3054 3052 3054
3070 3067 3064 3061 3057 3054 3052 3048 3045 3041 3036 3033 3032 3031 3029 3027 3027 3028 3028 3029 3030 3031 3031 3032 3035 3035 3035 3037 3039 3039 3040 3041 3043 3045 3047 3048 3049 3049 3049 3050 3049 3048 3049 3048 3047 3048 3047
3065 3063 3060 3057 3054 3051 3049 3046 3042 3039 3034 3030 3029 3028 3027 3026 3026 3026 3026 3029 3029 3029 3030 3029 3031 3033 3035 3036 3037 3038 3039 3040 3040 3042 3044 3046 3047 3047 3047 3046 3046 3044 3040 3042 3041 3041 3041
3060 3058 3056 3053 3051 3047 3045 3043 3040 3037 3032 3028 3028 3027 3025 3024 3024 3025 3026 3027 3027 3028 3029 3028 3028 3031 3034 3035 3036 3037 3038 3038 3039 3040 3041 3042 3044 3046 3045 3045 3046 3036 3036 3036 3035 3035 3036
3056 3053 3051 3049 3047 3043 3042 3040 3037 3034 3030 3027 3025 3025 3023 3022 3022 3022 3023 3025 3025 3026 3028 3028 3029 3030 3032 3034 3035 3036 3036 3037 3036 3037 3039 3040 3041 3043 3044 3044 3037 3033 3033 3034 3032 3033 3032
3050 3048 3047 3045 3043 3041 3039 3036 3033 3031 3029 3026 3023 3021 3020 3020 3019 3019 3018 3019 3022 3024 3026 3026 3028 3029 3031 3033 3034 3034 3035 3034 3034 3035 3036 3038 3040 3042 3043 3043 3039 3033 3032 3031 3030 3029 3028
3045 3044 3043 3041 3039 3038 3036 3034 3031 3028 3026 3024 3022 3019 3017 3015 3014 3014 3014 3015 3016 3019 3021 3023 3025 3027 3029 3031 3033 3033 3033 3034 3033 3033 3033 3034 3037 3038 3040 3041 3033 3031 3031 3031 3032 3033 3027
3041 3040 3039 3038 3037 3036 3034 3032 3029 3026 3024 3021 3018 3015 3014 3012 3010 3009 3011 3012 3013 3014 3016 3019 3024 3025 3027 3029 3030 3031 3031 3032 3032 3032 3032 3033 3035 3035 3037 3038 3034 3029 3030 3031 3031 3028 3026
3036 3036 3035 3035 3035 3034 3032 3029 3027 3024 3022 3017 3014 3011 3009 3008 3006 3006 3005 3007 3008 3010 3012 3014 3018 3018 3021 3025 3027 3028 3029 3029 3030 3029 3030 3033 3031 3031 3032 3030 3029 3029 3030 3029 3028 3026 3025